CW9585 Weather Reports


Display with metric or nautical units.
time (UTC)temp
F
wind
direction
speed
MPH
gust
MPH
rain 1hr
in
rain 24hr
in
rain mn
in
humidity
%
barometer
mb
20260505195206 59 231 4.0 8.0 0.00 0.00 0.00 84 1017.0
20260505194705 58 206 4.0 8.0 0.00 0.00 0.00 83 1017.0
20260505194204 58 191 4.0 11.0 0.00 0.00 0.00 83 1017.1
20260505193205 58 184 4.0 11.0 0.00 0.00 0.00 83 1017.2
20260505192705 58 207 4.0 11.0 0.00 0.00 0.00 83 1017.1
20260505191705 58 228 5.0 12.0 0.00 0.00 0.00 82 1017.2
20260505191204 58 189 5.0 12.0 0.00 0.00 0.00 81 1017.2
20260505190705 58 186 5.0 12.0 0.00 0.00 0.00 81 1017.2
20260505190206 58 213 4.0 9.0 0.00 0.00 0.00 81 1017.2
20260505185704 59 218 4.0 8.0 0.00 0.00 0.00 81 1017.2
20260505185205 59 215 4.0 8.0 0.00 0.00 0.00 80 1017.0
20260505184704 59 224 5.0 10.0 0.00 0.00 0.00 80 1017.0
20260505184205 59 224 5.0 10.0 0.00 0.00 0.00 80 1017.0
20260505183704 59 258 4.0 9.0 0.00 0.00 0.00 79 1017.1
20260505183206 59 158 4.0 9.0 0.00 0.00 0.00 79 1017.1
20260505182205 59 242 5.0 11.0 0.00 0.00 0.00 79 1016.9
20260505181205 60 193 5.0 11.0 0.00 0.00 0.00 78 1016.8
20260505180204 60 207 5.0 10.0 0.00 0.00 0.00 77 1016.7
20260505175705 60 215 5.0 9.0 0.00 0.00 0.00 76 1016.7
20260505174704 59 191 4.0 8.0 0.00 0.00 0.00 75 1016.6
20260505174205 59 173 4.0 8.0 0.00 0.00 0.00 75 1016.5
20260505173205 58 192 4.0 7.0 0.00 0.00 0.00 76 1016.5
20260505172705 58 196 4.0 7.0 0.00 0.00 0.00 76 1016.5
20260505171705 58 220 4.0 7.0 0.00 0.00 0.00 76 1016.5
20260505171204 58 195 4.0 7.0 0.00 0.00 0.00 76 1016.6
20260505170705 58 179 4.0 7.0 0.00 0.00 0.00 76 1016.6
20260505170205 58 197 4.0 7.0 0.00 0.00 0.00 75 1016.6
20260505165705 58 210 4.0 7.0 0.00 0.00 0.00 76 1016.5
20260505165204 58 190 3.0 7.0 0.00 0.00 0.00 76 1016.5
20260505164705 58 187 3.0 5.0 0.00 0.00 0.00 76 1016.4
20260505164204 58 242 2.0 5.0 0.00 0.00 0.00 77 1016.3
20260505163704 57 241 2.0 5.0 0.00 0.00 0.00 78 1016.2
20260505163204 57 281 2.0 5.0 0.00 0.00 0.00 78 1016.3
20260505162705 57 237 1.0 4.0 0.00 0.00 0.00 78 1016.3
20260505162204 56 282 1.0 3.0 0.00 0.00 0.00 78 1016.3
20260505161705 56 282 1.0 4.0 0.00 0.00 0.00 78 1016.3
20260505161204 56 10 2.0 4.0 0.00 0.00 0.00 78 1016.2
20260505160705 56 338 1.0 4.0 0.00 0.00 0.00 78 1016.1
20260505160204 56 272 2.0 4.0 0.00 0.00 0.00 78 1016.2
20260505153204 55 266 2.0 4.0 0.00 0.00 0.00 79 1016.3
20260505152704 55 266 2.0 4.0 0.00 0.00 0.00 79 1016.2
20260505152204 55 266 2.0 4.0 0.00 0.00 0.00 79 1016.2
20260505151205 55 279 0.0 3.0 0.00 0.00 0.00 80 1016.1
20260505150204 55 350 0.0 0.0 0.00 0.00 0.00 80 1016.0
20260505140204 54 355 2.0 4.0 0.00 0.00 0.00 79 1015.7
20260505130204 54 295 0.0 3.0 0.00 0.00 0.00 78 1015.1
20260505124705 54 299 1.0 3.0 0.00 0.00 0.00 78 1015.3
20260505124205 55 299 1.0 2.0 0.00 0.00 0.00 77 1015.3
20260505123704 54 299 0.0 2.0 0.00 0.00 0.00 77 1015.3
20260505123204 54 299 0.0 0.0 0.00 0.00 0.00 77 1015.3
20260505122204 54 339 0.0 6.0 0.00 0.00 0.00 77 1015.4
20260505120704 55 296 2.0 5.0 0.00 0.00 0.00 77 1015.4
20260505120205 55 306 3.0 5.0 0.00 0.00 0.00 77 1015.4
20260505115705 55 297 3.0 5.0 0.00 0.00 0.00 77 1015.4
20260505115205 55 321 3.0 5.0 0.00 0.00 0.00 77 1015.3
20260505114704 55 316 3.0 5.0 0.00 0.00 0.00 78 1015.2
20260505114204 55 327 3.0 5.0 0.00 0.00 0.00 78 1015.2
20260505113704 55 313 2.0 6.0 0.00 0.00 0.00 78 1015.3
20260505113204 54 319 3.0 6.0 0.00 0.00 0.00 79 1015.4
20260505112704 54 347 2.0 6.0 0.00 0.00 0.00 79 1015.3
20260505112204 55 310 1.0 4.0 0.00 0.00 0.00 79 1015.3
20260505111704 55 340 1.0 4.0 0.00 0.00 0.00 80 1015.2
20260505111204 55 317 1.0 3.0 0.00 0.00 0.00 80 1015.2
20260505110205 55 304 1.0 4.0 0.00 0.00 0.00 81 1015.3
20260505102204 55 12 0.0 0.0 0.00 0.00 0.00 82 1015.2
20260505101705 55 51 0.0 0.0 0.00 0.00 0.00 82 1015.2
20260505100704 55 51 0.0 0.0 0.00 0.00 0.00 82 1015.2
20260505095705 55 22 0.0 0.0 0.00 0.00 0.00 82 1015.4
20260505095205 55 22 0.0 0.0 0.00 0.00 0.00 81 1015.4
20260505094704 55 22 0.0 0.0 0.00 0.00 0.00 81 1015.4
20260505094204 55 22 0.0 0.0 0.00 0.00 0.00 81 1015.3
20260505093706 55 22 0.0 0.0 0.00 0.00 0.00 81 1015.3
20260505093205 55 26 0.0 0.0 0.00 0.00 0.00 81 1015.3
20260505092704 55 26 0.0 0.0 0.00 0.00 0.00 81 1015.4
20260505092205 55 26 0.0 2.0 0.00 0.00 0.00 81 1015.5
20260505091705 55 26 0.0 2.0 0.00 0.00 0.00 81 1015.6
20260505091204 55 26 0.0 2.0 0.00 0.00 0.00 81 1015.7
20260505090704 55 44 0.0 0.0 0.00 0.00 0.00 81 1015.8
20260505085205 55 44 0.0 0.0 0.00 0.00 0.00 80 1015.8
20260505084705 55 34 0.0 0.0 0.00 0.00 0.00 80 1015.8
20260505084205 55 34 0.0 0.0 0.00 0.00 0.00 80 1015.8
20260505083705 55 36 0.0 0.0 0.00 0.00 0.00 81 1015.8
20260505083205 55 36 0.0 0.0 0.00 0.00 0.00 81 1015.8
20260505082204 55 36 0.0 0.0 0.00 0.00 0.00 80 1015.8
20260505081705 55 36 0.0 0.0 0.00 0.00 0.00 80 1015.9
20260505080704 55 37 0.0 0.0 0.00 0.00 0.00 80 1015.9
20260505080204 55 45 0.0 0.0 0.00 0.00 0.00 80 1016.0
20260505075705 55 355 0.0 0.0 0.00 0.00 0.00 80 1016.0
20260505075204 55 355 0.0 0.0 0.00 0.00 0.00 80 1016.0
20260505074705 55 355 0.0 0.0 0.00 0.00 0.00 80 1016.0
20260505074205 55 334 0.0 0.0 0.00 0.00 0.00 80 1016.0
20260505073705 55 320 0.0 0.0 0.00 0.00 0.00 79 1015.9
20260505073204 55 333 0.0 1.0 0.00 0.00 0.00 80 1015.9
20260505072704 56 320 0.0 1.0 0.00 0.00 0.00 80 1015.8
20260505072205 56 5 0.0 1.0 0.00 0.00 0.00 80 1015.8
20260505071706 56 25 0.0 3.0 0.00 0.00 0.00 80 1015.8
20260505071205 56 25 0.0 3.0 0.00 0.00 0.00 80 1015.8
20260505070206 56 321 1.0 3.0 0.00 0.00 0.00 79 1015.8
20260505065205 56 206 0.0 0.0 0.00 0.00 0.00 79 1015.8
20260505064205 56 206 0.0 0.0 0.00 0.00 0.00 79 1015.6
20260505063706 56 206 0.0 0.0 0.00 0.00 0.00 79 1015.6
20260505063204 56 206 0.0 0.0 0.00 0.00 0.00 79 1015.5
20260505062704 56 206 0.0 0.0 0.00 0.00 0.00 79 1015.5
20260505061704 57 206 0.0 0.0 0.00 0.00 0.00 79 1015.6
20260505061205 57 206 0.0 0.0 0.00 0.00 0.00 78 1015.6
20260505060705 56 206 0.0 0.0 0.00 0.00 0.00 78 1015.7
20260505060205 56 66 0.0 2.0 0.00 0.00 0.00 78 1015.7
20260505055205 57 66 1.0 2.0 0.00 0.00 0.00 78 1015.9
20260505054705 57 66 1.0 2.0 0.00 0.00 0.00 78 1015.9
20260505054204 57 51 0.0 2.0 0.00 0.00 0.00 78 1015.9
20260505053704 57 45 0.0 2.0 0.00 0.00 0.00 78 1016.0
20260505053205 57 54 0.0 2.0 0.00 0.00 0.00 78 1015.9
20260505052704 57 54 0.0 3.0 0.00 0.00 0.00 78 1015.9
20260505052204 57 45 0.0 6.0 0.00 0.00 0.00 77 1016.0
20260505051704 57 57 1.0 7.0 0.00 0.00 0.00 77 1016.0
20260505051204 57 75 2.0 7.0 0.00 0.00 0.00 77 1016.0
20260505050205 57 79 2.0 5.0 0.00 0.00 0.00 77 1016.0
20260505041705 58 248 1.0 3.0 0.00 0.00 0.00 76 1015.5
20260505041204 58 248 1.0 3.0 0.00 0.00 0.00 75 1015.4
20260505040705 58 225 1.0 4.0 0.00 0.00 0.00 75 1015.3
20260505040205 58 225 1.0 4.0 0.00 0.00 0.00 75 1015.2
20260505035705 58 260 2.0 4.0 0.00 0.00 0.00 75 1015.2
20260505035204 58 229 2.0 4.0 0.00 0.00 0.00 75 1015.2
20260505034704 58 227 2.0 5.0 0.00 0.00 0.00 74 1015.0
20260505034204 58 224 2.0 5.0 0.00 0.00 0.00 74 1015.0
20260505033706 58 215 2.0 5.0 0.00 0.00 0.00 74 1014.9
20260505032705 59 226 2.0 5.0 0.00 0.00 0.00 73 1014.8
20260505032204 59 267 2.0 5.0 0.00 0.00 0.00 73 1014.8
20260505031705 59 279 3.0 5.0 0.00 0.00 0.00 73 1015.0
20260505030705 59 295 2.0 6.0 0.00 0.00 0.00 72 1015.0
20260505030205 60 215 2.0 6.0 0.00 0.00 0.00 72 1015.0
20260505025704 60 252 3.0 5.0 0.00 0.00 0.00 71 1015.0
20260505025204 60 242 2.0 6.0 0.00 0.00 0.00 71 1014.9
20260505024706 60 240 2.0 8.0 0.00 0.00 0.00 70 1015.0
20260505024205 60 252 3.0 8.0 0.00 0.00 0.00 68 1014.9
20260505023705 60 229 4.0 8.0 0.00 0.00 0.00 66 1015.0
20260505023206 61 245 4.0 8.0 0.00 0.00 0.00 66 1014.8
20260505022204 61 252 4.0 8.0 0.00 0.00 0.00 65 1014.8
20260505021705 61 257 4.0 9.0 0.00 0.00 0.00 65 1014.8
20260505021204 62 252 4.0 9.0 0.00 0.00 0.00 63 1014.7
20260505020704 62 224 5.0 10.0 0.00 0.00 0.00 63 1014.7
20260505015704 62 309 5.0 10.0 0.00 0.00 0.00 63 1014.8
20260505015205 62 274 5.0 10.0 0.00 0.00 0.00 63 1014.8
20260505014205 62 234 4.0 9.0 0.00 0.00 0.00 62 1014.9
20260505013205 63 275 5.0 13.0 0.00 0.00 0.00 61 1015.0
20260505012704 63 239 6.0 13.0 0.00 0.00 0.00 59 1015.0
20260505012204 63 244 5.0 10.0 0.00 0.00 0.00 59 1015.0
20260505011704 63 239 5.0 10.0 0.00 0.00 0.00 59 1015.0
20260505011204 64 248 6.0 10.0 0.00 0.00 0.00 59 1015.1
20260505010704 64 267 5.0 11.0 0.00 0.00 0.00 59 1015.2
20260505005705 64 287 6.0 13.0 0.00 0.00 0.00 60 1015.2
20260505005205 64 244 6.0 13.0 0.00 0.00 0.00 59 1015.3
20260505004704 64 239 5.0 11.0 0.00 0.00 0.00 58 1015.4
20260505003704 65 262 6.0 15.0 0.00 0.00 0.00 56 1015.3
20260505003206 65 249 7.0 15.0 0.00 0.00 0.00 56 1015.3
20260505002705 65 215 7.0 15.0 0.00 0.00 0.00 56 1015.4
20260505002205 65 225 6.0 13.0 0.00 0.00 0.00 58 1015.5
20260505001705 65 246 6.0 13.0 0.00 0.00 0.00 58 1015.3
20260505001204 65 252 8.0 13.0 0.00 0.00 0.00 57 1015.3
20260505000705 65 241 7.0 13.0 0.00 0.00 0.00 58 1015.2
20260505000205 66 239 6.0 13.0 0.00 0.00 0.00 58 1015.2
20260504235704 66 202 6.0 11.0 0.00 0.00 0.00 57 1015.1
20260504235204 66 254 5.0 11.0 0.00 0.00 0.00 58 1015.2
20260504234704 66 271 5.0 11.0 0.00 0.00 0.00 61 1015.3
20260504233205 66 234 6.0 14.0 0.00 0.00 0.00 60 1015.3
20260504232704 66 175 6.0 14.0 0.00 0.00 0.00 58 1015.3
20260504232204 66 207 7.0 13.0 0.00 0.00 0.00 58 1015.3
20260504231204 66 239 6.0 12.0 0.00 0.00 0.00 61 1015.5
20260504230705 66 185 6.0 15.0 0.00 0.00 0.00 61 1015.4
20260504230204 66 233 6.0 15.0 0.00 0.00 0.00 61 1015.4
20260504225704 65 212 7.0 15.0 0.00 0.00 0.00 63 1015.5
20260504225204 65 188 7.0 15.0 0.00 0.00 0.00 62 1015.3
20260504224704 66 226 6.0 13.0 0.00 0.00 0.00 62 1015.4
20260504222205 65 192 7.0 15.0 0.00 0.00 0.00 67 1015.5
20260504221204 65 220 6.0 14.0 0.00 0.00 0.00 67 1015.7
20260504220705 65 256 7.0 14.0 0.00 0.00 0.00 66 1015.7
20260504220203 65 223 7.0 15.0 0.00 0.00 0.00 66 1015.8
20260504215704 65 209 6.0 15.0 0.00 0.00 0.00 65 1015.8
20260504215205 65 279 6.0 15.0 0.00 0.00 0.00 65 1015.9
20260504214706 65 214 6.0 17.0 0.00 0.00 0.00 65 1015.9
20260504214205 65 225 7.0 17.0 0.00 0.00 0.00 66 1015.9
20260504213704 65 227 7.0 17.0 0.00 0.00 0.00 67 1015.9
20260504213204 64 254 7.0 14.0 0.00 0.00 0.00 67 1015.9
20260504212205 64 233 7.0 15.0 0.00 0.00 0.00 71 1016.1
20260504211704 64 215 7.0 15.0 0.00 0.00 0.00 71 1016.2
20260504211205 64 225 7.0 18.0 0.00 0.00 0.00 72 1016.2
20260504210705 63 243 7.0 18.0 0.00 0.00 0.00 72 1016.2
20260504205704 63 228 8.0 14.0 0.00 0.00 0.00 73 1016.2
20260504205204 63 207 7.0 14.0 0.00 0.00 0.00 72 1016.2
20260504204705 64 161 6.0 16.0 0.00 0.00 0.00 72 1016.2
20260504204204 63 203 7.0 16.0 0.00 0.00 0.00 73 1016.2
20260504203704 63 166 7.0 16.0 0.00 0.00 0.00 73 1016.2
20260504202206 63 221 6.0 14.0 0.00 0.00 0.00 75 1016.4
20260504201705 62 257 7.0 14.0 0.00 0.00 0.00 75 1016.4
20260504201204 62 206 7.0 15.0 0.00 0.00 0.00 76 1016.4